Regional Weather Roundup
Issued by NWS Cleveland, OH

Home | Current Version | Previous Version | Graphics & Text | Print | Product List | Glossary On
Versions: 1 2 3 4 5 6 7 8 9 10 11 12 13 14 15 16 17 18 19 20 21 22 23 24 25 26 27 28 29 30 31 32 33 34 35 36 37 38 39 40 41 42 43 44 45 46 47 48 49 50
208
ASUS41 KCLE 270302
RWRCLE
OHIO REGIONAL WEATHER ROUNDUP
NATIONAL WEATHER SERVICE CLEVELAND, OH
1000 PM EST SUN FEB 26 2017

NOTE: "FAIR" INDICATES FEW OR NO CLOUDS BELOW 12,000 FEET WITH NO
SIGNIFICANT WEATHER AND/OR OBSTRUCTIONS TO VISIBILITY.

OHZ001>008-015>018-024>027-034-035-043-044-270400-
   NORTHWEST OHIO

CITY           SKY/WX    TMP DP  RH WIND       PRES   REMARKS
DEFIANCE       FAIR      33  21  61 S7        30.11R WCI  27
FINDLAY        FAIR      35  22  58 S13       30.11R WCI  26
TOLEDO EXPRESS FAIR      37  20  50 SW10      30.09R
TOLEDO EXEC    MOCLDY    36  22  56 S10       30.11R
LIMA           FAIR      37  20  50 S10       30.13R
$$

OHZ009>014-019>023-028>033-038-089-270400-
   NORTHEAST OHIO

CITY           SKY/WX    TMP DP  RH WIND       PRES   REMARKS
CLE-HOPKINS    FAIR      38  18  44 S13       30.15R
CLE-LAKEFRONT  FAIR      39  18  42 S17G26    30.13R
CUY CO. ARPT   PTCLDY    37  19  48 S14       30.13R
LORAIN-ELYRIA  FAIR      35  19  52 SW12      30.14R WCI  27
ASHTABULA      FAIR      35  19  52 S13       30.13R WCI  26
AKRON-CANTON   FAIR      35  17  47 SW13      30.15R WCI  26
WOOSTER        FAIR      34  19  54 SW10      30.16R WCI  26
MANSFIELD      FAIR      35  20  54 S13       30.13R WCI  26
YOUNGSTOWN     MOCLDY    33  17  51 S6        30.16R WCI  28
$$

OHZ042-051>053-060>062-070>072-077>081-270400-
  SOUTHWEST OHIO

CITY           SKY/WX    TMP DP  RH WIND       PRES   REMARKS
CINC-COVINGTON CLOUDY    40  20  44 S7        30.15F
CINC-LUNKEN    CLOUDY    41  22  46 S3        30.19S
HAMILTON       FAIR      43  18  36 VRB5      30.18S
DAYTON         MOCLDY    39  16  39 S7        30.16R
WRIGHT-PAT AFB MOCLDY    40  16  38 S9        30.16R
DAYTON GENERAL MOCLDY    38  19  46 S7        30.15S
WILMINGTON     FAIR      38  22  52 S7        30.17R
$$

OHZ036-037-039>041-045>050-054>059-063>069-073>076-082>088-270400-
  CENTRAL AND SOUTHEAST OHIO

CITY           SKY/WX    TMP DP  RH WIND       PRES   REMARKS
COLUMBUS       FAIR      39  19  44 S5        30.18R
OSU AIRPORT    FAIR      39  19  44 S8        30.17R
BOLTON FIELD   NOT AVBL
RICKENBACK AFB MOCLDY    36  21  55 S5        30.19R
NEWARK         FAIR      35  18  49 S8        30.18R WCI  29
MARION         FAIR      36  21  54 S13       30.15R
LANCASTER      CLOUDY    37  22  54 SE5       30.20R
ZANESVILLE     FAIR      35  16  45 SW5       30.20R
NEW PHILLY     NOT AVBL
$$




USA.gov is the U.S. government's official web portal to all federal, state and local government web resources and services.